GFSFLT1_sfc_30mbdewp_000.txt.gz
Dewpoint
36 36 39 42 42 43 49 51 46 45 48 48 45 44 44 45 45 44 46 45 45 46 47 48 50 49 47 48 50 48 47 47
43 43 44 43 45 43 50 49 48 46 46 43 42 43 42 43 42 41 41 44 43 44 44 45 43 44 45 45 44 43 44 47
40 42 46 49 48 49 48 46 43 41 41 42 43 42 41 41 43 42 43 42 41 39 41 41 43 43 42 44 46 43 40 41
38 42 45 45 45 43 42 41 41 42 41 40 39 39 40 40 41 42 42 42 39 39 39 41 42 41 40 41 41 41 41 40
35 41 43 44 44 43 41 40 39 40 40 40 39 39 40 42 44 44 44 40 39 37 37 39 40 41 39 42 39 41 41 39
37 39 41 43 44 43 42 40 39 39 39 39 40 44 45 44 43 41 39 39 37 36 36 37 40 39 40 41 39 41 42 41
37 39 41 42 43 42 41 38 37 39 40 41 40 38 38 38 38 37 36 35 35 36 37 37 40 39 39 40 42 41 40 40
36 37 38 40 40 40 40 41 39 38 37 37 37 38 38 37 36 35 34 34 35 34 37 36 37 37 38 38 39 41 39 38
36 37 38 38 39 40 41 41 40 39 39 38 39 38 37 36 36 34 34 34 35 34 37 37 36 37 37 38 38 38 38 39
35 36 37 38 39 39 40 40 40 39 40 39 37 37 37 35 33 34 33 35 34 36 37 36 36 36 37 37 37 36 36 37
36 36 37 38 39 41 42 41 41 39 37 35 35 35 36 34 34 33 35 35 34 35 36 37 37 37 36 36 36 36 35 35
35 36 38 39 40 39 41 41 39 38 36 35 35 35 34 34 34 35 35 35 34 34 34 34 34 34 37 37 36 35 32 31
36 38 38 37 39 39 40 40 40 38 37 36 34 34 32 32 34 32 31 32 33 31 31 31 32 32 34 36 35 35 33 32
36 37 37 36 35 36 36 37 38 38 37 35 33 32 30 30 29 29 30 30 30 27 24 22 20 21 21 21 22 24 23 22
37 37 36 34 33 33 33 33 38 38 37 35 33 31 28 27 27 26 26 25 23 20 19 20 21 20 20 23 22 23 22 20
37 36 35 32 31 29 28 29 32 36 37 34 34 30 27 27 27 25 24 22 19 18 18 20 21 20 22 23 22 21 20 19
34 34 30 28 27 24 22 24 26 32 30 32 32 30 28 28 27 25 22 20 18 18 20 20 20 19 23 23 23 21 20 19
33 30 27 24 20 19 19 20 22 27 28 29 32 35 33 32 27 24 19 18 19 20 21 21 21 22 23 23 22 20 18 17
29 24 22 22 21 18 18 18 19 21 22 26 32 33 32 29 27 25 21 18 19 20 21 21 21 22 24 23 22 20 18 18

GFSFLT1_sfc_30mbdewp_003.txt.gz
Dewpoint
44 44 42 41 48 55 55 55 55 49 48 44 45 42 43 43 40 39 41 44 42 41 42 42 43 44 43 43 44 44 44 44
47 46 46 47 50 49 50 46 43 45 42 42 40 39 40 41 39 42 40 39 39 40 40 44 44 41 42 42 43 40 41 43
44 43 43 45 43 42 42 42 41 42 43 43 41 40 40 39 40 41 43 43 43 40 41 43 42 40 39 38 37 41 41 41
43 43 42 42 41 40 39 38 38 40 39 38 38 38 39 41 44 43 42 44 41 39 39 39 39 41 38 39 41 37 38 40
43 43 42 42 42 40 39 38 37 38 39 39 39 42 43 43 42 41 43 39 37 38 37 37 40 40 39 40 41 41 42 40
41 42 42 42 41 40 39 38 38 38 37 37 40 39 39 40 41 37 35 35 36 36 37 37 39 39 38 39 40 40 40 40
40 42 42 41 41 39 37 36 36 38 37 37 39 36 36 38 35 32 32 34 36 33 36 37 38 38 38 38 41 40 39 39
39 40 40 40 39 39 39 39 38 37 38 37 36 37 35 34 32 31 31 34 32 34 36 36 35 35 37 37 38 38 38 37
37 37 38 39 38 38 40 39 38 38 38 37 37 37 36 34 32 30 31 33 35 36 37 36 37 36 36 36 36 36 37 36
35 37 39 39 39 40 40 40 39 34 35 35 35 36 37 36 33 32 35 36 35 37 37 36 35 35 36 35 35 35 36 36
37 38 39 38 40 41 40 39 38 36 35 37 38 37 37 39 36 35 34 34 34 34 33 34 33 33 34 36 35 34 34 34
37 37 38 39 38 38 38 38 38 37 36 36 35 35 35 36 34 32 32 32 33 32 31 30 30 31 32 34 34 34 34 33
37 37 36 34 34 33 33 35 38 37 37 37 36 35 33 34 32 30 30 29 30 31 29 25 24 23 24 27 31 32 29 24
38 37 36 33 31 31 32 31 36 35 37 37 36 36 32 29 28 28 27 27 26 23 22 21 21 22 22 23 23 23 23 22
36 36 33 31 29 28 24 22 24 30 37 38 39 39 36 28 29 28 25 24 21 19 18 18 20 22 23 22 21 20 20 20
35 34 31 29 22 19 18 20 21 22 28 33 36 36 33 34 32 29 29 24 21 17 17 19 21 22 22 21 21 20 19 19
33 32 29 23 20 19 20 20 20 21 21 22 26 37 36 35 34 33 29 21 16 17 19 20 22 21 24 23 21 19 18 18
32 30 22 21 20 19 18 19 20 22 22 25 34 35 35 36 37 34 22 19 17 17 20 22 21 21 23 22 22 20 18 18
30 24 19 19 18 17 18 19 20 21 25 29 31 32 33 36 36 27 21 19 15 19 21 23 23 23 25 25 23 22 21 21

GFSFLT1_sfc_30mbdewp_006.txt.gz
Dewpoint
46 49 51 54 58 57 55 57 56 51 47 46 45 44 44 41 40 42 43 42 42 41 41 43 44 43 40 40 39 39 41 42
45 46 46 47 47 49 48 50 48 43 45 43 42 39 40 40 42 43 43 44 43 42 43 42 43 41 40 39 40 40 37 39
42 43 43 43 42 43 43 42 43 44 44 44 43 41 41 43 44 42 43 41 40 39 38 39 41 39 38 39 41 39 40 40
41 41 40 39 38 38 38 39 40 40 40 39 40 41 42 43 40 41 38 37 38 37 37 38 39 40 38 38 40 40 39 41
42 41 40 40 39 38 37 37 37 38 38 38 39 41 40 42 42 38 34 36 36 36 37 38 40 39 38 40 41 40 39 38
41 41 41 40 40 39 38 38 38 37 37 38 40 39 38 41 37 33 32 35 35 36 38 38 37 38 38 39 40 39 40 39
41 42 41 40 40 38 37 36 36 38 37 37 39 37 38 35 32 31 31 34 34 36 36 36 36 37 37 37 36 37 37 36
41 40 39 39 39 39 39 39 38 38 39 38 38 37 34 32 32 33 31 32 35 37 37 36 36 37 36 36 35 35 36 35
40 40 39 39 41 41 40 37 36 37 36 36 37 36 36 36 36 34 35 37 37 37 36 35 34 34 35 35 34 34 34 33
38 39 39 40 39 39 38 36 34 34 35 37 37 38 38 38 39 37 36 36 36 35 35 33 33 33 33 34 33 33 33 32
37 38 38 38 37 37 38 39 36 35 37 38 38 38 38 39 37 35 33 33 34 32 31 30 30 30 32 33 32 32 33 33
37 36 36 35 33 33 35 36 38 37 37 37 37 36 36 36 35 33 32 33 33 31 30 28 25 25 26 27 28 31 33 28
37 36 34 32 32 30 27 30 31 31 35 37 38 37 35 34 33 32 32 31 30 28 27 25 22 22 23 23 26 26 23 21
35 34 32 30 25 22 21 22 22 24 25 30 33 34 38 34 32 31 28 28 28 28 23 20 19 21 22 24 24 22 21 21
33 33 31 24 21 20 20 20 22 22 22 24 25 28 35 34 30 31 33 35 36 29 19 18 20 22 24 22 20 20 20 19
33 32 28 21 20 19 19 20 20 22 22 24 32 36 35 34 33 34 35 36 36 24 18 18 22 23 22 21 21 20 19 19
32 31 24 21 19 18 18 19 20 23 22 30 32 35 36 35 35 35 35 36 23 18 19 21 22 22 25 24 21 20 19 19
31 27 20 19 17 17 16 18 20 22 25 30 30 33 35 35 36 36 36 29 26 20 20 22 21 22 25 25 24 21 21 19
27 19 18 17 17 16 18 19 20 22 29 29 30 30 31 32 34 33 33 27 23 19 23 23 23 23 25 27 26 25 23 23

GFSFLT1_sfc_30mbdewp_009.txt.gz
Dewpoint
49 52 57 57 56 56 57 55 53 51 48 46 47 46 44 44 43 43 43 44 42 42 41 43 43 40 39 39 39 40 40 41
45 46 49 49 50 51 51 50 48 46 45 45 45 41 42 43 44 44 41 41 38 37 38 38 39 38 38 40 40 38 37 41
42 43 44 44 46 46 45 44 44 45 45 45 44 43 43 46 42 39 39 39 37 36 36 38 39 38 37 38 39 38 39 41
41 40 40 41 41 40 40 40 41 41 42 43 41 42 43 42 41 37 36 37 36 36 37 39 39 39 38 40 40 39 38 39
39 38 37 37 37 37 37 37 37 38 39 38 38 38 39 42 39 34 34 36 36 37 38 38 38 38 38 40 40 39 39 38
39 39 38 38 38 37 37 38 37 37 38 38 40 40 39 39 34 32 32 35 37 37 36 36 37 37 37 36 36 35 35 34
41 41 40 40 40 39 37 38 38 39 38 38 40 38 37 32 34 35 33 34 36 37 37 37 37 36 36 35 35 34 34 35
41 40 40 40 40 40 40 39 38 37 37 36 36 33 32 35 36 36 35 36 38 36 37 36 36 35 35 34 33 33 33 30
39 39 40 39 37 35 34 35 34 35 35 35 35 34 35 36 37 37 37 37 37 37 36 34 33 33 34 34 32 32 32 30
39 39 39 38 38 38 37 35 34 35 37 38 38 38 38 38 39 39 37 37 37 36 35 34 35 33 32 33 30 29 31 31
38 37 35 34 35 36 37 38 37 36 36 37 38 38 38 38 38 37 36 34 35 34 35 35 31 28 29 30 29 29 31 31
37 35 34 33 32 30 32 32 28 26 28 32 33 33 33 36 36 35 33 33 34 34 33 29 27 25 25 24 24 26 29 29
35 33 32 31 24 23 23 24 22 24 27 29 29 31 32 35 35 34 33 32 31 33 34 33 28 23 22 22 23 28 24 21
34 32 30 23 22 21 20 21 21 22 22 24 28 31 32 33 35 31 29 30 31 33 35 31 24 21 22 23 25 23 21 20
33 32 26 22 20 19 19 20 21 21 21 24 29 32 33 31 30 30 30 32 35 35 35 29 22 21 23 24 22 20 21 20
32 31 24 20 19 19 19 19 20 22 20 25 29 33 35 34 34 34 34 35 35 36 28 21 22 23 23 21 20 21 21 20
31 31 25 20 19 17 17 18 19 22 21 25 29 30 32 34 35 36 36 36 36 23 29 25 23 22 24 23 23 22 21 20
29 30 22 20 18 17 16 17 20 21 22 27 29 31 31 32 33 35 35 33 30 27 21 22 21 22 25 26 27 25 24 23
31 27 19 19 18 17 17 18 20 21 22 29 29 30 29 31 32 32 32 33 32 25 22 24 23 26 28 28 28 24 22 22

GFSFLT1_sfc_30mbdewp_012.txt.gz
Dewpoint
50 54 55 57 58 57 57 56 55 53 49 48 48 46 47 46 44 42 42 41 40 40 39 39 39 37 38 38 36 38 39 40
49 49 51 52 53 55 52 53 51 48 47 46 43 43 45 44 42 40 40 38 37 36 37 38 38 37 38 39 38 37 36 41
44 46 48 48 50 52 50 47 46 47 45 46 47 44 45 42 39 37 38 36 37 37 38 39 38 37 38 39 38 36 37 41
42 42 43 45 45 44 43 44 43 44 45 43 42 43 44 41 39 34 36 36 37 37 38 38 37 37 38 38 38 37 36 38
39 37 37 37 37 38 38 39 38 39 39 38 38 38 39 40 35 33 35 36 36 37 36 37 36 38 39 38 38 36 37 34
37 36 36 37 38 38 38 38 39 38 38 40 40 39 40 35 33 34 33 35 35 35 36 37 38 37 36 36 35 33 34 32
39 40 40 39 39 38 38 39 38 39 38 39 38 38 33 32 35 35 35 35 36 36 37 37 37 36 35 34 34 33 33 32
40 40 40 40 39 39 38 36 35 35 34 34 34 33 32 34 35 36 36 37 38 38 37 36 35 35 34 33 31 30 30 28
40 39 37 35 34 34 35 34 34 36 37 36 36 36 36 37 38 38 38 38 37 37 36 34 33 33 32 33 33 30 31 28
39 39 38 37 38 37 35 35 35 35 35 36 37 38 37 37 38 38 38 37 37 37 35 36 36 35 35 33 32 28 29 29
38 36 35 36 36 38 38 33 27 26 27 30 29 28 29 32 34 35 36 36 36 35 35 35 35 33 30 31 30 28 28 29
34 34 33 31 31 29 26 23 21 22 24 26 27 29 30 31 32 35 35 34 34 34 35 32 29 30 30 27 25 25 25 29
34 32 30 24 22 22 21 21 21 23 24 25 27 29 30 30 31 33 33 33 33 32 32 34 34 31 27 23 22 23 26 23
33 32 29 22 21 20 21 21 20 21 21 23 26 29 31 30 30 30 31 30 31 33 35 35 33 28 22 23 23 25 22 20
33 31 26 21 21 20 20 20 20 21 21 23 26 28 31 32 33 32 31 32 34 35 35 34 27 22 23 24 23 21 20 21
32 31 25 21 22 21 19 19 20 21 21 22 25 29 31 32 33 34 35 35 35 36 32 23 24 23 23 22 20 21 21 21
32 31 26 22 21 19 18 18 19 21 22 21 26 29 30 30 32 32 33 35 35 34 27 26 22 22 24 25 25 26 24 24
30 30 30 24 21 19 17 17 19 21 22 22 25 29 30 29 31 31 32 33 32 31 28 22 22 23 26 27 28 26 23 22
29 30 29 22 21 19 18 18 19 20 21 23 26 29 29 30 30 30 30 31 32 31 23 23 24 27 26 26 25 21 20 19

GFSFLT1_sfc_30mbdewp_015.txt.gz
Dewpoint
52 55 57 58 58 59 59 58 55 54 53 50 50 50 49 47 46 43 42 42 42 41 41 42 39 38 38 37 36 35 36 35
53 54 56 56 57 57 56 56 53 50 47 49 49 49 47 43 40 41 40 39 39 40 39 39 39 37 39 37 35 33 30 36
51 52 54 55 55 54 55 53 49 48 49 49 48 47 45 40 38 39 38 39 39 38 40 38 39 37 39 39 36 31 33 38
49 50 53 54 55 52 47 47 47 47 47 45 45 46 44 41 37 36 37 38 38 39 40 40 39 39 38 39 38 36 32 34
45 44 44 45 44 44 43 43 41 41 42 42 43 41 41 40 36 35 36 39 39 38 39 40 40 39 39 38 36 35 31 26
38 38 38 38 39 40 41 41 41 41 42 43 42 41 39 36 36 39 38 39 39 38 38 39 39 38 38 36 32 29 27 24
38 39 39 39 40 41 41 39 38 40 40 41 40 38 36 36 38 38 39 39 39 40 39 39 39 37 35 33 33 30 28 26
40 40 40 41 41 39 38 37 36 37 37 37 37 37 37 38 39 38 39 37 39 39 40 39 36 34 34 33 30 29 28 24
41 40 38 38 38 37 37 36 37 38 38 38 39 39 37 34 33 32 32 34 36 40 39 36 35 34 31 32 31 31 30 28
40 38 38 37 36 37 37 34 32 31 32 31 30 30 29 29 31 32 31 35 37 39 38 35 38 35 34 33 32 31 30 29
39 38 38 39 38 38 35 27 25 26 27 28 27 29 30 29 29 27 29 33 37 38 37 36 36 35 32 32 30 29 30 27
38 35 36 36 38 31 26 24 23 24 24 27 28 28 29 29 28 29 30 34 35 35 36 36 34 32 32 33 30 28 26 25
34 33 32 31 27 24 23 23 23 23 25 26 27 28 29 29 29 30 32 32 33 34 34 33 34 35 34 30 25 23 24 24
34 32 26 23 22 23 22 23 22 23 23 23 25 27 29 30 30 31 33 33 33 33 32 34 35 34 31 25 25 25 25 23
33 32 27 23 22 23 25 30 24 23 22 22 25 28 30 31 31 31 32 33 34 35 36 36 33 26 24 24 24 23 22 22
33 32 28 22 22 25 28 24 23 23 23 23 24 28 31 31 31 31 32 33 34 36 35 31 29 25 22 23 22 22 23 23
33 32 29 23 23 27 25 23 22 23 23 24 25 27 30 31 31 31 31 32 32 34 30 30 29 22 26 28 27 25 23 20
33 32 31 26 26 25 23 21 21 22 23 23 25 27 29 30 30 29 28 29 30 32 33 27 24 26 28 28 26 20 17 16
32 32 32 31 26 22 22 20 20 21 22 23 25 26 28 29 29 27 27 28 31 32 28 24 25 24 26 23 22 19 16 15

GFSFLT1_sfc_30mbdewp_021.txt.gz
Dewpoint
47 48 45 45 49 55 59 60 59 59 59 57 55 56 54 51 48 46 45 45 45 43 43 44 42 40 40 42 42 41 39 36
50 51 51 51 54 57 60 59 60 59 56 55 54 49 48 47 44 44 44 43 42 42 40 40 41 41 41 40 40 39 32 30
50 52 53 53 55 57 59 58 58 57 54 51 49 48 45 43 43 43 42 41 41 39 42 41 40 39 37 35 35 35 32 30
50 52 54 55 56 57 56 56 55 51 50 49 48 46 44 41 42 40 41 42 41 40 40 39 38 35 32 33 34 35 31 30
50 52 54 55 55 55 53 51 50 50 45 42 42 41 41 42 40 41 41 41 41 39 37 37 36 35 34 33 31 34 32 29
49 51 51 51 50 49 48 47 43 43 44 44 43 42 41 40 39 37 35 31 28 27 26 28 35 36 34 35 35 33 32 32
44 45 46 46 46 46 44 41 42 43 43 43 42 39 36 33 30 25 23 21 21 21 23 26 28 33 35 34 34 34 34 33
39 40 40 42 43 43 42 41 42 42 39 36 36 34 27 25 23 21 22 21 21 22 26 28 30 30 33 33 35 35 36 29
37 37 38 40 42 42 40 41 39 37 35 32 28 27 27 24 24 25 23 22 22 24 26 30 32 32 33 37 35 37 34 31
37 38 39 41 42 41 41 39 35 32 30 32 30 28 27 27 27 26 23 23 22 22 26 27 30 31 34 38 37 37 31 29
37 38 41 42 41 42 40 35 31 32 33 31 31 28 27 27 27 26 24 24 25 25 25 25 27 29 35 34 33 31 31 32
38 40 40 41 41 40 37 31 33 33 30 29 28 26 27 27 27 26 24 25 25 24 25 26 27 26 27 28 29 32 31 31
39 40 40 40 40 37 33 33 34 30 28 26 26 26 25 25 26 26 25 25 25 24 25 26 25 25 26 29 30 32 31 27
39 40 40 40 39 35 32 34 33 29 28 25 24 25 25 25 26 25 25 24 25 24 25 25 25 28 31 27 24 24 24 25
40 40 39 39 39 34 32 33 34 32 28 21 21 23 25 26 26 25 26 25 25 25 25 25 25 26 26 27 27 26 26 25
39 40 38 37 37 33 31 33 37 31 24 22 21 23 26 26 25 25 25 26 25 24 24 24 25 29 29 29 27 27 25 25
39 39 37 36 34 31 29 36 33 30 25 24 23 23 25 25 23 25 24 24 24 24 24 24 25 30 27 26 23 22 22 22
38 37 37 36 33 30 28 34 30 27 24 23 23 23 24 22 21 20 21 23 25 24 24 25 27 28 28 25 21 20 21 19
36 37 37 37 35 30 33 29 27 25 23 23 23 22 17 18 19 20 21 23 24 24 23 25 25 27 26 22 21 21 21 19

GFSFLT1_sfc_30mbdewp_024.txt.gz
Dewpoint
44 43 43 46 55 58 58 60 60 59 60 58 57 57 56 54 52 50 49 47 47 47 48 46 45 45 45 45 45 45 43 38
47 47 47 46 57 60 60 60 61 60 59 58 55 55 52 50 47 47 45 45 43 43 45 45 45 44 44 42 40 39 39 38
49 50 51 51 57 60 60 60 60 59 59 57 54 51 50 47 46 45 44 44 43 43 43 43 43 42 39 40 38 38 38 37
48 51 53 54 59 60 59 59 59 59 56 52 50 47 46 44 45 44 43 43 43 42 41 41 40 39 38 39 38 37 36 34
48 51 53 58 58 58 58 57 57 53 50 48 46 44 44 44 44 44 43 42 40 37 35 37 40 40 39 40 36 38 36 33
48 51 55 56 57 57 57 53 50 48 46 47 46 45 44 43 41 37 35 31 28 27 29 33 34 34 38 39 39 37 36 34
48 51 52 52 53 51 50 45 44 45 46 46 44 40 37 35 30 28 27 26 27 29 30 32 34 35 36 39 38 38 37 38
49 49 48 48 49 48 45 43 44 45 44 41 38 32 32 31 30 28 26 26 26 29 29 31 33 35 36 38 38 37 38 38
45 46 45 46 46 45 43 43 43 41 39 35 33 32 32 32 31 27 27 26 27 27 30 31 32 34 35 37 38 37 38 38
41 41 43 44 44 45 44 42 40 38 35 35 34 32 31 31 30 29 28 27 25 28 29 30 30 31 34 33 39 39 39 37
39 38 41 43 44 44 44 42 38 35 35 37 34 32 32 31 30 29 27 27 28 29 29 29 30 30 30 33 35 34 34 35
38 38 41 43 44 44 44 40 34 34 36 35 33 34 31 30 30 29 27 27 28 27 28 28 28 29 29 31 32 32 32 33
38 39 41 42 43 43 42 37 34 36 34 31 32 32 30 31 29 28 28 27 28 27 27 27 28 28 29 31 32 30 30 30
39 40 41 41 42 43 40 35 36 35 32 31 30 30 29 28 28 29 28 28 27 28 27 28 28 28 30 30 30 28 28 28
38 40 41 41 42 42 39 35 37 34 32 31 28 28 29 28 29 29 28 29 28 28 28 28 28 27 27 29 28 28 29 28
36 40 41 41 41 41 38 36 36 36 35 30 27 26 26 28 29 29 28 29 28 28 27 27 27 28 29 30 28 27 28 26
34 38 42 41 40 41 38 35 36 38 36 30 26 25 26 28 29 27 27 27 27 27 27 27 28 29 27 25 22 22 24 23
33 37 40 41 40 39 36 34 37 37 31 27 26 26 26 27 24 22 22 24 27 27 28 27 26 29 27 23 20 21 23 23
34 36 39 39 39 37 34 32 35 32 27 26 28 27 22 21 22 23 23 25 26 27 27 27 26 29 27 23 20 19 24 23

GFSFLT1_sfc_30mbdewp_030.txt.gz
Dewpoint
56 58 59 58 58 58 59 58 58 57 56 57 57 57 56 55 54 53 48 48 49 47 46 45 44 41 39 39 37 38 39 38
51 57 58 56 56 58 58 58 57 56 55 55 56 55 54 53 52 48 45 45 45 44 44 42 41 39 38 39 38 36 36 37
48 54 55 55 56 58 58 58 57 56 56 56 56 55 52 50 47 45 44 44 44 43 42 41 40 38 37 37 38 36 38 35
45 50 54 55 56 58 58 58 58 56 55 56 54 50 47 45 44 44 43 43 42 42 41 40 40 40 39 39 39 37 35 35
48 50 54 56 58 59 59 59 58 57 56 56 53 49 44 44 44 44 44 43 37 35 33 33 33 34 34 36 39 38 37 34
49 54 57 57 59 59 59 59 58 58 58 54 51 47 45 45 44 42 35 31 33 32 31 32 34 35 35 35 37 38 37 35
50 56 59 59 59 59 59 59 58 57 58 51 49 45 44 42 39 31 28 31 32 31 32 32 31 33 35 36 38 37 37 37
53 56 58 59 59 58 58 55 51 49 52 47 45 42 39 36 31 28 29 29 29 28 30 30 31 32 32 36 37 36 36 36
53 55 56 57 57 56 51 47 43 42 42 40 36 33 32 31 31 30 29 29 29 29 29 29 30 30 29 31 33 35 37 37
52 53 53 52 49 47 46 43 40 37 36 35 33 33 33 32 30 30 30 29 29 30 29 28 29 29 29 31 32 34 38 36
50 50 49 48 46 45 45 42 40 37 34 33 32 33 33 31 31 29 29 29 28 28 28 28 27 27 29 31 32 32 32 33
49 49 48 46 44 44 44 41 38 37 34 33 33 31 33 33 32 30 29 28 28 28 28 27 27 28 29 31 31 31 30 32
48 48 47 46 45 45 43 41 37 34 34 34 33 33 34 33 32 30 30 28 29 28 28 27 27 28 28 30 31 31 28 27
45 45 46 45 45 45 44 40 37 36 36 34 33 32 34 31 32 32 30 29 28 29 27 27 27 28 28 30 32 31 29 29
41 43 44 45 45 44 44 38 37 37 35 34 32 33 34 31 32 32 31 29 29 29 28 28 29 29 29 30 29 29 29 29
40 40 41 43 44 44 40 38 39 36 35 33 32 33 33 33 33 31 30 30 29 29 29 30 30 30 31 30 28 27 25 24
36 40 41 43 44 44 41 39 38 36 34 33 34 33 34 33 31 30 26 25 25 27 27 30 29 30 29 30 27 24 23 23
40 41 42 43 44 44 43 40 38 36 36 35 34 32 29 28 27 26 27 29 29 28 28 29 29 30 29 29 25 22 22 22
35 39 43 43 44 43 40 40 39 37 33 31 30 30 29 30 30 32 33 32 29 28 27 28 29 30 30 29 23 21 21 24

GFSFLT1_sfc_30mbdewp_033.txt.gz
Dewpoint
55 55 56 58 60 60 59 59 58 57 56 57 57 57 56 56 55 55 52 52 48 46 46 44 42 40 39 38 36 38 38 37
56 56 57 59 59 58 59 57 57 56 55 55 55 54 54 53 53 47 48 48 46 45 43 42 41 39 38 38 37 36 36 35
56 57 58 59 58 58 58 57 57 55 55 55 56 55 54 52 50 46 46 45 45 43 42 41 39 38 38 38 37 36 38 35
54 56 57 57 57 57 58 58 57 55 55 56 54 50 49 47 45 44 44 44 43 43 41 40 39 39 36 37 38 37 35 35
50 54 56 56 55 57 58 58 57 56 55 55 53 51 49 45 44 43 44 43 40 36 34 34 34 34 34 36 37 37 37 35
46 52 55 55 56 57 58 58 58 57 55 55 53 50 46 45 44 43 34 34 33 32 33 34 33 34 35 35 37 38 38 35
46 48 53 55 57 58 58 58 58 58 56 55 54 49 45 43 42 36 31 33 32 32 32 32 33 33 31 36 37 37 37 37
50 53 55 56 57 58 58 58 58 58 57 55 51 48 45 43 40 33 32 30 30 30 31 31 30 30 30 33 35 36 36 36
52 55 57 57 57 58 58 58 55 54 55 53 47 45 44 43 39 35 32 30 30 31 30 31 30 30 29 30 31 32 36 36
53 56 57 58 58 58 57 54 51 48 48 45 42 42 41 40 36 32 31 32 30 30 30 29 30 29 29 30 31 32 37 36
53 55 56 56 56 53 52 49 47 42 41 40 38 37 36 33 32 31 30 30 32 30 29 29 28 28 28 30 31 32 32 32
52 53 53 53 51 50 49 44 40 39 39 37 35 34 34 32 30 30 30 32 31 29 29 28 27 27 29 30 30 31 31 30
51 51 50 49 50 48 46 42 39 38 38 37 35 34 33 32 31 31 32 29 30 30 29 28 28 28 28 29 29 30 31 28
49 49 49 48 47 46 45 43 40 38 38 36 34 34 33 33 32 31 31 29 30 29 29 28 28 28 28 29 29 30 31 29
47 48 48 47 46 45 45 43 39 39 38 36 35 34 34 33 33 32 32 31 30 29 29 28 29 29 29 29 30 30 29 29
43 45 46 47 47 46 45 42 41 41 38 37 37 35 36 34 34 34 33 31 30 30 29 29 30 31 30 30 30 29 28 27
42 42 43 44 45 45 43 42 41 40 38 37 36 36 36 35 33 31 29 30 31 30 31 31 31 30 30 31 30 28 26 24
39 41 41 42 44 45 42 41 40 38 37 37 35 32 30 29 30 32 33 34 35 33 31 28 28 30 30 31 30 27 25 23
34 36 41 43 44 42 40 39 38 36 33 31 31 31 33 34 34 35 36 36 35 33 29 29 29 29 30 31 30 25 22 22

GFSFLT1_sfc_30mbdewp_036.txt.gz
Dewpoint
53 54 54 55 57 60 59 59 59 58 57 58 58 57 57 57 57 57 55 53 48 46 46 44 42 40 39 37 36 38 37 36
52 54 55 56 58 59 59 58 57 57 57 57 56 55 55 54 54 52 52 49 46 46 44 42 41 39 38 37 37 35 37 35
51 55 55 56 58 59 59 58 57 56 56 55 55 54 53 53 50 47 49 47 45 44 42 41 39 38 38 38 37 37 37 35
53 55 55 56 58 58 58 58 57 56 55 55 53 51 50 49 46 44 46 45 44 43 41 40 39 37 35 37 37 36 34 35
53 55 56 56 57 58 58 58 57 55 55 54 53 52 50 48 45 44 44 44 42 40 36 34 34 35 34 35 37 37 36 34
51 54 56 57 57 57 58 58 57 56 55 55 53 52 51 47 44 43 39 37 35 34 34 34 34 34 34 36 37 37 37 35
47 51 54 57 56 56 57 57 57 57 56 55 54 51 48 46 43 38 35 34 33 33 32 31 31 32 33 36 37 36 36 36
44 47 51 54 55 56 57 57 57 57 56 55 54 51 48 46 43 37 33 32 32 32 31 32 32 31 33 34 33 35 35 35
44 47 49 53 55 56 57 57 57 57 57 56 54 53 49 46 43 37 35 33 33 32 32 34 36 32 30 30 30 31 33 35
45 49 51 53 55 56 57 57 57 57 57 55 53 51 49 46 42 39 35 33 32 33 39 36 32 30 29 29 29 29 33 36
48 52 54 55 56 56 57 58 57 54 53 52 50 48 47 46 41 37 35 32 32 37 33 30 30 29 29 29 30 32 34 33
50 53 56 56 56 56 56 55 53 49 48 47 45 44 45 43 41 36 33 32 35 35 30 30 29 28 29 29 30 31 31 31
51 53 54 54 55 53 53 51 48 45 43 42 42 41 41 39 36 31 32 32 35 31 32 30 29 28 29 29 29 30 30 30
50 51 51 52 51 50 50 47 44 42 42 41 42 38 37 33 32 32 33 33 32 32 31 29 29 29 29 30 29 29 29 30
48 49 50 49 49 49 48 46 42 41 41 41 38 37 35 34 34 33 33 31 31 30 30 30 30 30 31 30 29 29 30 30
46 47 48 48 48 47 46 45 42 42 40 38 36 37 36 35 35 33 33 32 31 31 31 34 35 35 31 30 30 30 30 29
42 43 45 47 47 47 46 44 42 41 40 38 38 37 36 35 34 33 31 32 34 37 37 36 36 32 30 31 31 30 29 28
37 41 42 43 44 46 44 42 42 40 39 39 37 35 32 32 33 35 36 37 37 37 36 35 34 31 29 30 31 30 28 27
34 35 37 38 40 40 39 39 37 34 33 33 34 34 36 36 37 37 37 37 37 36 35 34 31 30 29 29 31 31 28 26

GFSFLT1_sfc_30mbdewp_039.txt.gz
Dewpoint
53 54 54 55 57 58 58 59 60 60 59 58 58 59 60 60 60 59 57 55 52 50 49 48 46 43 41 40 39 39 38 37
52 53 54 54 56 57 58 59 60 59 58 57 57 58 59 59 59 59 57 53 50 49 47 45 44 42 40 41 39 39 37 38
52 53 54 54 54 56 59 59 59 59 58 57 57 57 57 56 55 54 55 51 49 48 45 43 42 41 41 41 40 37 38 38
51 52 53 54 54 56 58 59 59 58 58 57 55 54 53 53 50 50 51 49 47 46 45 42 42 41 39 38 38 37 33 37
52 52 53 54 55 56 58 59 58 58 58 56 55 55 53 52 49 48 47 47 45 44 43 42 39 37 36 36 37 37 37 32
51 52 53 55 56 58 58 59 58 58 57 57 56 55 54 52 48 47 46 45 44 41 39 37 36 35 37 38 39 39 39 37
48 52 54 55 57 58 59 58 58 58 57 57 56 55 52 50 47 44 43 41 39 37 36 35 35 35 36 39 39 39 38 37
46 48 52 54 57 58 58 58 58 58 57 56 55 54 52 50 47 44 41 38 37 36 35 35 34 34 36 37 39 37 38 36
45 46 48 53 56 57 58 57 57 58 57 56 56 54 52 51 48 45 41 39 37 35 34 35 35 36 36 36 35 35 35 36
43 45 47 51 55 56 57 57 57 58 58 57 56 55 53 51 48 45 42 39 37 36 36 37 38 36 33 33 33 33 35 37
43 45 48 50 54 56 57 57 57 57 58 57 56 56 54 51 47 44 43 39 36 36 38 40 35 34 33 32 32 33 34 36
45 48 52 53 54 55 56 56 57 57 56 56 55 53 53 51 48 45 42 39 36 35 39 35 33 31 31 32 32 32 33 33
47 50 53 55 55 56 56 56 56 55 54 52 52 51 50 48 47 45 42 39 36 35 36 33 33 31 31 31 31 34 32 31
48 51 52 53 54 54 54 54 53 50 48 48 48 47 47 48 47 45 41 37 35 36 34 31 33 31 31 32 37 35 31 31
48 50 50 51 52 52 52 50 48 46 46 46 46 45 45 44 40 37 36 35 34 34 34 33 32 32 35 39 36 33 31 31
46 48 49 49 50 50 49 48 46 44 43 42 42 41 39 38 36 35 35 34 33 33 33 36 38 38 38 37 35 33 32 32
42 43 46 48 48 48 47 45 44 44 42 40 39 38 37 37 36 35 35 34 37 38 37 38 37 38 36 35 32 31 31 31
39 40 42 43 44 46 45 44 43 41 40 39 38 36 35 35 36 37 38 38 38 38 38 39 38 37 36 33 31 31 31 30
36 36 37 37 39 40 39 38 38 37 36 35 35 35 36 37 38 38 38 38 38 38 38 37 35 35 32 29 29 29 30 30

GFSFLT1_sfc_30mbdewp_045.txt.gz
Dewpoint
51 50 48 47 50 50 50 52 54 57 58 53 51 48 51 48 49 52 57 58 58 57 54 54 54 51 51 49 47 43 38 35
52 50 50 49 50 52 52 53 52 57 57 52 48 46 47 48 51 53 56 57 57 56 54 54 54 51 50 48 46 41 38 35
51 51 49 51 50 50 51 52 53 57 57 55 50 47 45 48 51 57 59 58 57 56 55 54 53 50 49 48 44 40 38 36
47 49 49 49 49 50 50 52 54 54 54 54 52 48 47 48 51 54 59 58 57 56 55 53 52 50 49 47 44 41 36 39
42 45 49 50 50 51 52 52 53 55 54 54 51 47 48 51 53 57 58 59 58 55 54 53 51 50 48 47 44 40 38 39
41 42 42 48 51 51 53 52 52 53 55 54 54 51 50 51 53 55 57 56 57 55 53 52 51 50 47 45 40 40 41 41
40 43 43 43 46 51 53 52 52 53 54 54 55 54 54 53 55 55 54 55 55 54 52 52 52 49 46 43 40 43 42 42
38 40 43 44 46 48 51 52 50 53 55 57 57 58 58 57 58 57 54 54 53 53 52 51 50 47 44 42 43 44 43 39
38 38 40 43 46 49 51 51 52 52 56 59 61 60 60 59 59 58 56 55 54 53 51 48 46 44 42 43 44 41 39 40
36 38 39 41 45 50 54 54 53 53 57 60 61 59 59 59 59 58 57 55 53 51 48 45 44 41 42 43 41 36 38 36
32 35 38 42 45 49 55 56 56 56 59 59 59 59 58 58 58 57 56 54 50 47 45 44 41 40 42 41 37 35 35 38
37 38 38 41 44 47 52 56 56 57 58 59 57 56 57 58 58 57 55 52 49 45 44 42 41 43 42 38 34 34 36 38
37 41 44 45 47 48 52 55 55 55 59 58 58 57 57 57 57 56 55 52 50 46 44 41 44 42 38 35 35 34 36 41
37 43 46 48 49 50 52 53 53 53 55 58 58 58 56 56 55 53 51 50 47 43 42 43 40 38 36 36 37 41 41 40
34 41 45 48 51 52 54 54 55 55 55 55 55 54 53 53 52 50 48 47 45 45 42 40 38 38 37 39 39 38 37 37
32 41 45 49 52 53 54 54 54 53 53 53 53 52 52 51 51 49 48 45 42 40 39 38 38 38 39 39 37 35 38 39
41 44 47 50 52 52 52 52 52 51 49 49 48 46 45 44 43 42 42 41 40 39 38 39 39 38 38 37 37 39 39 38
43 46 48 49 50 50 49 49 48 46 45 44 43 41 40 39 37 37 37 38 38 39 39 38 38 37 38 38 37 38 38 37
42 43 45 46 46 45 45 44 43 42 41 41 40 40 39 38 38 38 39 38 38 38 38 37 37 38 38 37 37 37 35 30

GFSFLT1_sfc_30mbdewp_048.txt.gz
Dewpoint
51 50 51 51 51 51 50 49 49 52 52 43 47 51 53 53 52 53 57 59 59 59 58 56 56 55 54 53 51 48 46 42
51 49 51 51 49 49 48 46 49 54 54 51 53 50 52 53 52 52 58 58 59 59 58 57 56 55 54 53 51 47 41 39
49 48 49 50 50 50 51 52 52 55 55 55 54 52 50 51 52 53 59 58 59 59 58 57 56 55 54 52 50 45 44 41
50 49 49 50 52 52 52 53 53 54 57 57 55 51 49 48 50 56 59 59 59 58 58 57 57 56 53 52 51 47 43 41
50 51 51 51 51 53 53 53 53 53 57 56 55 51 49 47 49 55 59 60 59 58 58 57 56 55 53 52 50 47 45 43
49 49 50 50 51 52 53 52 52 54 55 56 55 53 49 51 50 54 57 59 59 59 58 57 56 55 53 52 49 48 45 44
43 46 49 50 51 53 53 52 52 54 55 54 56 55 53 52 55 57 58 58 59 58 57 56 56 54 53 52 49 45 44 43
41 43 43 48 51 52 54 54 53 54 57 56 56 56 56 55 56 57 57 58 58 57 56 55 55 54 51 48 46 46 43 43
39 42 43 43 47 52 54 54 53 53 55 57 56 56 58 58 57 59 58 56 57 56 56 54 53 50 47 46 46 45 43 42
38 40 44 45 46 48 52 53 53 53 55 58 57 56 59 59 60 59 59 58 57 55 55 51 48 46 44 45 45 42 40 41
34 39 41 44 47 49 51 52 52 53 54 59 58 55 57 60 60 59 59 58 56 54 51 48 46 44 45 44 42 40 40 39
35 36 38 42 45 49 52 54 53 54 56 60 60 59 58 59 59 58 58 57 52 49 48 46 44 43 45 43 41 37 36 39
38 39 40 41 42 47 55 56 56 58 59 60 60 59 59 58 58 58 57 52 49 47 47 45 43 44 44 41 37 35 41 40
34 41 44 45 46 47 50 54 55 59 58 59 59 59 58 58 56 55 54 53 51 48 46 43 43 43 40 38 38 41 41 40
28 40 44 47 49 50 52 54 55 57 59 59 58 56 55 54 52 51 49 48 45 44 44 44 41 40 40 41 41 40 39 40
28 33 45 49 52 53 54 56 56 56 57 56 55 54 54 53 51 50 48 47 46 43 41 40 41 41 40 40 39 39 38 37
31 33 44 50 51 54 55 54 54 54 53 52 52 52 52 52 51 49 47 43 41 40 40 39 39 38 39 39 39 38 39 39
38 41 48 51 53 53 53 53 52 50 49 48 46 45 43 42 41 41 41 40 40 39 39 40 39 38 38 38 37 38 38 38
42 47 50 52 51 51 50 49 48 46 44 43 42 41 39 39 38 39 39 40 40 40 39 39 39 38 37 38 38 38 38 37